Flag for Germany Weather past 2 weeks in Taunusstein, Hesse, Germany

Now
37 °F

Overcast.


Feels Like: 34 °F
Forecast: 41 / 48 °F
Wind: 5 mph from Southwest

Location: Wiesbaden Airport

Current Time: Dec 21, 2014 at 7:59:42 AM

Latest Report: Dec 21, 2014 at 6:58 AM


Visibility: N/A

Pressure: 30.46 "Hg

Humidity: 100%

Dew point: 37 °F

Location of TaunussteinLocation

Historic Weather in Taunusstein — Graph

°F

Taunusstein temperature yesterday

Maximum temperature yesterday: 44 °F (at 5:58 PM)
Minimum temperature yesterday: 36 °F (at 6:58 AM)
Average temperature yesterday: 41 °F

Past Weeks' High & Low Weather Summary

 TemperatureHumidityPressure
High55 °F (Dec 18, 9:01 PM)100% (Dec 6, 11:58 PM)30.46 "Hg (Dec 6, 11:58 PM)
Low31 °F (Dec 8, 9:58 PM)70% (Dec 9, 1:00 PM)29.62 "Hg (Dec 12, 6:58 PM)
Average41 °F92%30.05 "Hg
* Reported Dec 6 6:58 AM — Dec 21 6:58 AM, Taunusstein, Weather by CustomWeather, © 2014

Note: Actual official high and low records may vary slightly from our data, if they occured in-between our weather recording intervals... More about our weather records

Advertising

Taunusstein weather history for previous 24 hours

 ConditionsComfort  
Time TempWeatherWind HumidityBarometerVisibility
6:58 AM
Dec 21
37 °FOvercast.5 mph100%30.46 "HgN/A
5:58 AM37 °FPassing clouds.7 mph98%30.46 "HgN/A
4:58 AM39 °FPassing clouds.8 mph93%30.45 "HgN/A
3:58 AM39 °FPassing clouds.9 mph93%30.45 "HgN/A
2:59 AM39 °FPassing clouds.13 mph93%30.41 "HgN/A
1:58 AM39 °FClear.9 mph93%30.40 "HgN/A
12:58 AM41 °FLight rain. Mostly cloudy.9 mph87%30.40 "HgN/A
12:04 AM41 °FLight rain. Partly cloudy.6 mph87%30.36 "HgN/A
11:58 PM
Dec 20
40 °FPassing clouds.9 mph88%30.38 "HgN/A
10:58 PM38 °FClear.8 mph89%30.35 "HgN/A
10:02 PM41 °FPartly cloudy.17 mph87%30.29 "HgN/A
9:03 PM41 °FHeavy rain. Fog.15 mph87%30.28 "Hg4 mi
9:02 PM43 °FHeavy rain. Overcast.18 mph81%30.29 "Hg5 mi
7:58 PM43 °FPassing clouds.12 mph79%30.23 "HgN/A
6:58 PM44 °FPartly cloudy.13 mph76%30.21 "HgN/A
5:58 PM44 °FOvercast.13 mph75%30.19 "HgN/A
4:58 PM44 °FOvercast.13 mph79%30.17 "HgN/A
3:58 PM43 °FMostly cloudy.13 mph83%30.16 "HgN/A
2:58 PM43 °FCloudy.17 mph87%30.17 "HgN/A
1:58 PM43 °FLight rain. More clouds than sun.16 mph86%30.18 "HgN/A
12:58 PM43 °FLight rain. Mostly cloudy.14 mph87%30.20 "HgN/A
12:02 PM43 °FMostly cloudy.10 mph81%30.19 "HgN/A
11:58 AM43 °FLight rain. Mostly cloudy.10 mph81%30.22 "HgN/A
10:58 AM42 °FMore clouds than sun.13 mph84%30.23 "HgN/A
9:58 AM40 °FOvercast.12 mph85%30.25 "HgN/A
8:58 AM39 °FOvercast.7 mph88%30.26 "HgN/A
7:58 AM37 °FPassing clouds.8 mph87%30.26 "HgN/A
Weather by CustomWeather, © 2014

See weather overviewHow to use our weather pages